• MPC Preparation (Info)

  • MPEC 2014-A29 : 2014 AB16

    The following Minor Planet Electronic Circular may be linked-to from your own Web pages, but must not otherwise be redistributed electronically.

    A form allowing access to any MPEC is at the bottom of this page.


    Read MPEC 2014-A28 Read MPEC 2014-A30


    M.P.E.C. 2014-A29                                Issued 2014 Jan. 5, 18:57 UT
    
         The Minor Planet Electronic Circulars contain information on unusual
             minor planets and routine data on comets.  They are published
       on behalf of Commission 20 of the International Astronomical Union by the
              Minor Planet Center, Smithsonian Astrophysical Observatory,
                              Cambridge, MA 02138, U.S.A.
    
                 Prepared using the Tamkin Foundation Computer Network
    
                                  MPC@CFA.HARVARD.EDU
                URL https://www.minorplanetcenter.net/    ISSN 1523-6714
    
                                       2014 AB16
    
    Observations:
         K14A16B* C2014 01 02.30858 05 16 27.51 +19 34 22.5          19.7 VqEA029G96
         K14A16B  C2014 01 02.31905 05 16 38.47 +19 35 35.5          19.8 VqEA029G96
         K14A16B  C2014 01 02.32428 05 16 43.99 +19 36 12.0          19.8 VqEA029G96
         K14A16B  C2014 01 02.35532 05 17 16.57 +19 39 45.5          19.7 VqEA029G96
         K14A16B  C2014 01 02.35737 05 17 18.71 +19 39 59.4          19.8 VqEA029G96
         K14A16B  C2014 01 02.35941 05 17 20.84 +19 40 12.9          19.5 VqEA029G96
         K14A16B  C2014 01 02.36146 05 17 23.01 +19 40 27.2          19.6 VqEA029G96
         K14A16B  C2014 01 03.16732 05 31 16.74 +21 05 05.1          19.4 VqEA029G96
         K14A16B  C2014 01 03.16783 05 31 17.19 +21 05 08.1          19.9 VqEA029G96
         K14A16B  C2014 01 03.16834 05 31 17.71 +21 05 11.1          20.8 VqEA029G96
         K14A16B  C2014 01 03.16885 05 31 18.10 +21 05 14.0          20.5 VqEA029G96
         K14A16B KC2014 01 03.20017805 31 42.21 +21 07 57.9          20.3 VuEA029H21
         K14A16B KC2014 01 03.20517805 31 46.59 +21 08 25.4          19.7 VuEA029H21
         K14A16B KC2014 01 03.21000205 31 50.88 +21 08 52.6          20.3 VuEA029H21
         K14A16B  C2014 01 04.14196 05 45 22.44 +22 25 47.9          19.8 VqEA029G96
         K14A16B  C2014 01 04.14421 05 45 24.15 +22 25 58.6          20.2 VqEA029G96
         K14A16B  C2014 01 04.14647 05 45 25.83 +22 26 08.6          20.3 VqEA029G96
         K14A16B  C2014 01 04.14873 05 45 27.53 +22 26 19.1          19.1 VqEA029G96
         K14A16B  C2014 01 04.30427 05 47 21.09 +22 37 37.2          20.2 RoEA029926
         K14A16B  C2014 01 04.30772 05 47 23.54 +22 37 51.7          20.5 RoEA029926
         K14A16B  C2014 01 04.31116 05 47 26.01 +22 38 05.5          19.6 RoEA029926
         K14A16B KC2014 01 04.94242 05 55 10.33 +23 18 14.6                qEA029J95
         K14A16B KC2014 01 04.94752 05 55 13.64 +23 18 33.8          20.1 RqEA029J95
    
    Observer details:
    926 Tenagra II Observatory.  Observers M. Schwartz, P. R. Holvorcem.  0.81-m
        f/7 Ritchey-Chretien + CCD.
    G96 Mt. Lemmon Survey.  Observers E. J. Christensen, R. A. Kowalski.
        Measurers A. Boattini, E. J. Christensen, A. R. Gibbs, A. D. Grauer,
        R. E. Hill, J. A. Johnson, R. A. Kowalski, S. M. Larson, F. C. Shelly.
        1.5-m reflector + CCD.
    H21 Astronomical Research Observatory, Westfield.  Observer R. Holmes.
        Measurers T. Linder, S. Foglia, L. Buzzi, T. Vorobjov.  0.61-m f/4.5
        astrograph + CCD.
    J95 Great Shefford.  Observer P. Birtwhistle.  0.40-m f/6.0 Schmidt-Cassegrain
        + CCD.
    
    Orbital elements:
    2014 AB16                                                Earth MOID = 0.0113 AU
    Epoch 2013 Nov. 4.0 TT = JDT 2456600.5                  MPC
    M 352.91903              (2000.0)            P               Q
    n   0.41656366     Peri.  301.48510     +0.70546968     -0.70649123
    a   1.7756136      Node   103.53435     +0.66835299     +0.63667142
    e   0.5045538      Incl.    3.32655     +0.23583218     +0.30906254
    P   2.37           H   25.3           G   0.15           U   7
    Residuals in seconds of arc
    140102 G96  0.1+  0.1-    140103 G96  0.2-  0.2-    140104 G96  0.2-  0.2-
    140102 G96  0.3-  0.1-    140103 G96  0.7+  0.1-    140104 G96  0.1-  0.0
    140102 G96  0.2+  0.1+    140103 G96  0.2-  0.2-    140104 926  0.0   0.0
    140102 G96  0.1+  0.1+    140103 H21  0.5+  0.5+    140104 926  0.4-  0.2+
    140102 G96  0.1-  0.0     140103 H21  0.1-  0.1+    140104 926  0.4-  0.1-
    140102 G96  0.2-  0.4-    140103 H21  0.3+  0.6+    140104 J95  0.2+  0.4-
    140102 G96  0.0   0.0     140104 G96  0.2-  0.3-    140104 J95  0.1-  0.4+
    140103 G96  0.2-  0.2-    140104 G96  0.0   0.1+
    
    Ephemeris:
    2014 AB16                a,e,i = 1.78, 0.50, 3                   q = 0.8797
    Date    TT    R. A. (2000) Decl.     Delta      r     Elong.  Phase     V
    2013 12 06    20 40 27.8 -30 59 35   0.1481  0.9010    51.6   121.0    25.8
    ...
    2013 12 21    22 35 40.9 -28 16 52   0.05299 0.9602    62.2   115.0    23.3
    ...
    2013 12 29    03 14 39.9 +03 33 23   0.03210 1.0037   128.6    50.0    19.7
    ...
    2014 01 04    05 43 21.8 +22 15 50   0.05960 1.0404   162.8    16.3    20.1
    2014 01 05    05 55 48.7 +23 22 41   0.06565 1.0468   164.7    14.4    20.3
    2014 01 06    06 06 20.3 +24 15 14   0.07190 1.0533   166.0    13.0    20.5
    ...
    2014 01 12    06 45 27.9 +26 55 51   0.1121  1.0934   168.0    10.8    21.4
    ...
    2014 01 20    07 09 37.4 +27 58 47   0.1709  1.1497   164.8    13.0    22.5
    ...
    2014 02 04    07 31 51.2 +28 00 51   0.2969  1.2605   154.7    19.6    24.2
    
    A. U. Tomatic                (C) Copyright 2014 MPC           M.P.E.C. 2014-A29
    

    Read MPEC 2014-A28 Read MPEC 2014-A30


    MPEC number:

    Enter an MPEC number in one of the following forms:

    • 1997-B01 (the full form)
    • J97B01 (the packed version of the full form)
    • B01 (the abbreviated form)